Погода в Рославле

Россия / Смоленская область     53°56′50″N   32°51′24″E
темп.,
°C
ветер,
м/с
пор.,
м/с
влажн.,
%
обл.,
%
осадки,
мм/ч
давл.,
гПа
погр.,
м
17 мая, пн
пн1700:00+13в228697 0.0 101117
03:00+12в348970 0.0 101165
06:00+13в3988100 0.0 1010172
09:00+19в6147266 0.1 1008662
12:00+23вюв81368100 0.2 1005976
15:00+26юв7155384 0.2 10042090
18:00+24юв6116197 0.0 10031080
21:00+19юв5127969 0.0 1003354
18 мая, вт
вт1800:00+17юв5138793 0.0 1003399
03:00+16юв51295100 0.4 1003323
06:00+16вюв4995100 0.0 1002300
09:00+19ююв6108178 0.0 1004823
12:00+19ююв4880100 0.3 1003816
15:00+20юв587292 1.0 1003933
18:00+16юв51191100 3.8 1002558
21:00+14юв3896100 4.1 1003231
19 мая, ср
ср1900:00+14вюв4119716 0.5 1002347
03:00+13юв4109793 0.5 1003303
06:00+13юв41097100 0.0 1003342
09:00+16юв5883100 0.0 1004758
12:00+20ююв68575 0.0 10041495
15:00+22ююв465293 0.0 10041858
18:00+19ююв4577100 1.1 1005770
21:00+14юв2294100 3.6 100537
20 мая, чт
чт2000:00+14ююв1196100 1.6 100413
03:00+13всв2497100 1.6 100491
06:00+13вюв3997100 2.2 1003377
09:00+14ю2496100 2.6 1002400
12:00+12ююв249593 2.7 1003224
15:00+17ююв5776100 3.6 10011175
18:00+15ю577672 0.5 10011077
21:00+10ю3591100 0.6 1001135
21 мая, пт
пт2100:00+9юв239184 0.0 1000169
03:00+9юз2491100 0.0 1000265
06:00+9юз4797100 0.6 1000477
09:00+8зюз61096100 2.4 1002715
12:00+8зюз71294100 0.1 1006961
15:00+7з81394100 1.3 10091129
18:00+9з5139198 0.7 1012823
21:00+9юз3492100 0.7 101460